Wind_Speed
4 13 13 6 1 2 9 12 13 9 5 2 4 14 15 12 9 8 8 7 6 5 5 5 3 4 5 8 10 11 13 13 12 11 11 10 11 12 13 14 15 15 16 16
10 11 6 5 8 12 14 14 12 8 4 1 6 12 12 12 10 9 9 8 7 6 6 5 4 2 4 6 8 9 11 12 13 12 11 9 8 9 11 12 13 15 15 15
6 10 6 10 13 14 7 8 9 7 8 3 8 10 14 14 11 10 9 6 7 6 5 5 4 2 2 3 4 5 7 8 10 10 10 8 9 9 11 11 12 12 13 14
8 3 9 12 9 3 8 7 7 11 8 1 5 1 17 18 17 15 14 12 10 8 6 4 4 3 2 0 1 2 4 5 7 9 11 13 13 14 13 12 12 11 11 11
4 7 12 12 5 2 6 8 8 7 3 4 8 5 8 14 18 19 17 15 12 10 8 6 5 4 2 2 3 3 4 5 6 7 8 9 11 11 11 13 14 13 12 11
7 2 3 3 4 2 15 11 8 5 3 4 1 4 9 8 15 14 18 17 15 12 11 7 6 5 4 4 6 6 6 5 6 7 7 8 9 10 12 13 13 14 13 12
5 4 3 1 10 8 6 11 3 4 4 1 3 5 4 6 5 6 16 18 17 14 12 11 9 8 5 5 6 7 7 7 7 9 10 10 11 11 11 11 12 13 13 12
7 6 5 1 3 3 11 5 3 4 3 3 5 6 3 4 3 5 7 15 17 15 13 13 11 8 6 6 5 5 7 9 10 12 13 14 14 14 14 14 14 14 14 13
6 4 3 2 1 3 6 6 3 2 2 3 4 3 6 6 5 5 10 13 18 16 14 14 11 9 8 6 6 7 10 13 15 15 17 18 18 18 19 19 18 18 17 16
5 5 2 3 2 5 2 5 2 1 3 4 4 5 3 7 7 7 9 13 16 15 13 13 10 7 6 6 8 10 12 14 16 17 17 19 20 20 21 22 22 22 22 21
7 4 5 3 8 8 4 4 0 1 3 3 3 2 4 4 3 6 8 12 15 14 12 9 6 5 5 5 5 5 7 9 11 12 14 14 15 17 18 20 22 23 23 24
3 4 5 2 2 1 3 5 9 3 4 3 4 3 4 1 2 4 6 10 12 9 5 4 2 1 4 4 5 7 9 10 12 13 14 14 14 14 14 15 17 18 20 20
9 4 4 4 4 4 7 9 3 1 1 8 4 2 3 2 5 6 8 9 8 6 5 8 8 7 6 7 8 9 10 12 13 14 15 15 16 17 17 17 18 18 19 20
4 3 3 5 3 5 5 8 4 2 4 6 11 6 7 5 7 8 8 8 9 9 8 8 8 8 8 9 9 10 11 13 14 15 15 16 18 19 19 20 20 21 22 22
3 3 2 2 2 3 3 7 15 10 9 9 3 9 5 10 9 9 11 11 11 10 8 7 7 7 7 8 9 10 11 13 14 15 16 17 19 20 22 23 24 25 26 26
2 2 4 3 2 5 7 10 13 17 17 17 15 11 5 10 9 12 12 11 10 9 8 7 6 6 7 8 9 10 11 13 14 16 17 19 21 22 23 25 26 27 28 29
6 6 4 3 2 3 8 19 19 10 11 14 12 11 12 10 12 12 12 10 9 8 7 6 6 5 6 7 9 11 12 14 16 18 19 21 22 24 26 27 28 29 30 30
7 6 1 2 4 4 2 2 4 18 9 15 6 5 9 9 9 8 9 9 9 8 7 6 5 4 5 7 10 12 14 16 18 19 20 21 23 25 27 28 28 29 30 30
3 4 2 3 5 7 7 5 4 7 3 15 13 8 10 12 11 8 8 9 8 8 8 6 4 3 5 8 11 14 16 18 18 18 20 22 23 25 27 28 28 28 29 30
5 1 3 3 3 4 3 4 3 3 5 4 11 12 15 14 8 6 11 11 10 8 6 4 3 4 6 9 13 16 18 19 18 19 21 22 23 24 26 27 28 30 31 32
4 2 5 4 4 5 4 5 6 4 2 6 9 12 15 11 4 14 14 11 9 7 4 1 3 7 10 13 15 18 20 19 19 19 21 22 23 25 26 28 30 32 32 33
8 8 4 4 4 7 9 7 4 3 5 7 9 12 13 10 12 12 11 10 7 5 2 3 8 11 14 16 18 20 20 19 19 20 21 22 23 25 28 30 31 31 32 32
5 4 3 7 1 4 3 3 3 1 7 7 9 10 11 12 11 9 8 7 4 1 4 7 12 16 17 17 18 20 20 19 20 21 22 23 25 27 29 31 31 32 31 32
6 5 3 3 5 4 1 1 2 6 9 11 12 12 10 10 9 7 7 4 1 3 7 11 15 18 20 18 18 19 20 20 20 22 23 24 26 27 29 31 31 31 32 31
1 9 6 2 3 4 2 4 8 12 15 14 14 12 10 11 7 6 4 1 4 7 11 15 18 19 20 19 19 20 19 19 21 22 24 25 26 28 30 29 30 32 31 29
6 5 5 1 8 2 11 11 14 13 12 13 13 11 11 9 8 5 2 4 9 13 16 17 18 20 20 19 20 20 19 19 21 23 24 26 27 29 30 31 32 32 29 28
Wind_Direction
88 137 142 115 5 96 130 131 120 106 107 147 123 148 163 171 187 176 161 157 158 149 125 109 95 71 56 53 49 45 44 39 38 36 35 34 31 27 25 21 19 22 21 21
132 118 101 97 129 131 129 124 113 96 98 346 145 164 173 182 196 193 189 184 176 163 172 170 165 118 58 51 42 41 39 36 33 35 32 37 37 29 21 14 10 12 16 19
129 118 148 142 132 123 106 126 153 130 135 106 160 187 194 200 208 205 212 216 189 190 174 174 181 157 79 57 35 28 30 29 29 28 29 35 43 40 27 13 9 6 11 12
68 112 159 158 126 182 129 112 134 144 192 155 216 79 199 197 205 210 208 204 206 199 205 202 196 190 187 295 333 343 359 12 21 17 23 26 28 24 20 12 1 1 4 9
78 130 146 147 114 273 131 158 139 153 166 222 183 254 109 197 211 210 209 203 203 199 198 199 200 199 215 229 260 282 303 321 335 343 356 6 19 19 14 13 6 1 357 355
85 78 14 68 71 223 137 140 142 172 203 225 109 261 152 176 223 215 203 202 198 194 193 204 194 195 216 228 244 258 272 289 299 306 315 323 335 344 347 351 353 356 354 350
131 53 80 175 112 140 213 174 164 190 190 150 151 229 354 164 167 213 200 197 195 189 188 198 195 200 211 212 229 247 260 279 288 288 293 301 306 310 315 322 330 331 336 338
165 172 181 59 314 238 185 254 253 216 189 124 182 228 131 140 191 231 233 195 188 188 190 199 195 197 200 217 238 260 284 294 303 302 300 297 294 295 299 302 303 305 309 313
158 126 123 53 91 318 164 218 7 81 31 267 214 206 210 207 195 191 196 191 185 187 190 198 199 208 222 246 266 286 295 299 301 300 298 294 290 286 284 285 287 290 293 296
155 122 187 136 187 85 282 115 178 61 153 244 216 257 191 170 171 168 177 189 185 185 189 199 206 216 248 270 286 294 298 299 303 304 302 297 293 289 286 285 284 286 288 290
149 129 142 190 208 186 152 193 257 224 271 268 278 182 55 125 169 174 179 186 183 186 192 197 209 230 262 295 324 345 351 349 346 342 338 327 314 305 298 293 292 292 291 288
137 115 150 161 117 275 263 235 195 199 196 235 307 287 123 278 225 191 170 178 178 182 175 206 211 150 95 64 43 29 15 4 355 348 345 344 341 337 329 319 312 307 302 296
175 152 123 158 186 198 216 194 90 88 224 209 207 215 125 154 183 177 163 162 168 177 144 118 105 90 72 52 39 27 13 3 356 353 350 348 348 345 339 334 328 323 318 311
171 165 201 202 120 123 187 184 197 177 189 222 233 239 182 160 152 157 157 158 145 131 121 110 96 77 55 38 27 18 9 1 355 351 348 347 344 341 336 331 328 325 321 316
245 166 136 133 121 195 215 196 186 201 211 223 303 234 208 176 164 159 149 142 140 130 117 100 85 67 45 31 20 13 6 360 355 351 346 343 338 334 330 327 325 322 320 316
158 174 179 167 174 235 253 220 210 218 236 246 256 255 178 161 153 154 157 153 146 133 118 99 82 59 40 25 13 7 359 352 346 341 335 332 330 328 326 323 321 319 316 314
161 152 182 183 166 241 273 235 210 207 207 223 235 254 166 181 181 170 160 158 150 133 118 102 84 59 32 14 1 354 346 340 336 332 329 328 327 325 324 322 321 319 317 315
159 143 71 129 144 224 76 72 246 221 238 219 245 183 185 176 150 148 153 151 144 134 124 107 83 48 16 359 352 343 336 329 325 324 325 326 325 322 320 318 316 316 315 313
184 145 132 178 212 312 204 201 186 186 247 214 211 174 144 132 137 143 148 142 133 129 118 112 87 31 356 348 340 333 326 324 323 324 323 323 322 321 320 319 319 316 314 313
106 100 229 181 211 238 84 146 191 191 252 169 180 170 158 161 196 156 158 143 138 137 136 117 39 349 331 331 331 326 323 323 322 324 321 321 321 319 319 318 318 316 312 309
155 160 209 196 237 277 127 144 168 220 50 147 165 165 166 181 44 126 145 145 150 152 148 80 319 319 326 326 326 321 322 320 322 319 318 318 317 316 316 316 315 313 311 310
172 165 188 178 207 251 154 145 229 53 129 142 154 161 161 120 125 134 143 146 155 171 195 304 316 319 320 321 322 319 318 320 317 316 315 316 318 318 318 318 315 314 311 311
207 214 198 206 212 89 136 46 69 97 138 135 134 145 143 136 138 144 139 149 168 164 323 322 316 316 316 317 316 313 316 316 316 314 314 317 319 320 321 317 316 313 313 315
205 183 224 184 162 153 148 145 130 134 128 121 121 122 129 127 135 135 139 152 189 306 318 318 317 316 314 314 313 312 314 315 314 313 316 319 319 321 318 317 314 312 313 311
119 163 181 195 169 132 133 143 129 117 114 113 110 110 113 122 124 123 111 96 310 314 320 322 316 313 312 313 311 313 314 315 314 316 315 318 320 319 317 315 308 309 306 306
188 173 195 220 143 82 140 139 130 122 117 114 113 102 96 104 102 94 63 325 322 329 322 319 316 314 313 312 309 312 315 315 313 313 315 319 317 316 313 315 314 309 306 306
Height
860 860 869 873 879 871 872 882 895 903 907 900 904 909 914 919 921 921 922 925 929 930 934 935 938 938 936 936 935 934 932 931 929 927 924 922 921 920 919 918 916 912 910 907
859 878 884 882 875 872 875 885 899 906 906 902 906 909 912 917 918 919 921 924 926 929 932 936 937 937 937 936 936 935 934 933 931 929 927 924 922 921 920 919 918 916 912 908
861 882 886 880 879 880 884 883 895 894 907 906 906 909 912 914 916 920 923 922 924 926 929 933 935 936 936 936 937 937 936 935 933 931 928 924 921 920 920 920 918 916 913 910
884 889 885 880 886 879 891 894 895 900 896 894 906 885 899 902 911 915 916 920 922 925 929 930 932 934 936 936 937 936 936 935 934 932 930 928 925 923 922 921 919 917 913 910
899 890 884 883 892 892 898 896 894 897 898 901 906 903 891 893 902 903 908 912 917 921 925 928 930 932 934 936 936 937 937 936 935 933 932 929 927 924 922 921 919 917 915 912
897 901 896 897 898 895 896 898 899 900 899 900 903 899 874 893 890 891 898 906 913 919 924 927 929 931 933 935 936 936 935 934 934 933 932 931 929 926 924 922 919 917 915 913
896 903 903 899 899 900 896 897 906 905 905 895 905 904 872 883 889 884 889 898 907 914 920 924 927 929 930 932 933 934 933 932 932 931 931 930 928 926 924 922 919 917 914 912
889 905 904 907 903 894 895 895 901 904 890 884 902 886 879 885 890 891 891 892 903 911 918 920 923 925 928 930 931 932 931 930 930 929 929 928 926 925 923 921 919 917 914 911
889 903 908 910 905 902 903 904 905 905 914 900 870 874 878 882 886 890 891 892 899 906 914 918 921 924 926 928 929 930 930 929 928 926 925 924 923 922 920 918 916 914 912 909
887 903 909 910 907 907 904 905 910 913 921 918 877 877 863 880 881 888 892 894 899 905 911 915 919 922 926 927 928 929 928 927 926 925 923 921 919 918 916 914 912 909 907 905
883 888 914 911 904 894 910 905 913 906 905 897 885 865 875 879 882 885 888 894 899 905 909 914 918 922 924 925 926 926 926 926 925 923 921 918 916 914 912 910 908 905 903 900
883 888 898 898 910 910 903 898 897 907 916 904 896 878 883 886 888 888 890 895 899 904 912 916 920 922 923 925 925 925 926 925 924 922 920 918 915 913 910 907 904 901 898 895
879 884 903 900 910 912 906 903 927 929 903 897 897 871 885 888 889 891 893 900 905 910 914 918 921 923 925 926 925 925 926 926 924 922 920 917 915 912 909 906 902 899 895 892
876 879 879 871 886 895 917 917 929 917 907 885 879 865 882 887 890 893 897 901 906 911 916 921 924 926 927 927 927 927 927 926 924 921 919 917 915 911 908 904 900 896 892 888
879 890 897 897 890 892 889 896 905 916 893 885 863 870 868 884 888 893 898 904 910 915 919 922 925 927 929 929 929 928 927 926 924 921 918 916 913 910 906 902 898 893 889 884
885 890 887 896 896 895 890 887 891 890 886 881 878 878 877 881 890 895 899 905 911 916 920 924 927 929 930 931 930 928 927 925 923 920 917 915 911 908 903 900 895 890 885 880
879 893 891 886 892 894 893 873 876 875 875 876 878 870 880 889 891 894 900 906 912 918 922 925 928 930 931 930 929 928 926 924 921 918 914 911 908 904 900 895 891 886 881 876
881 887 894 899 894 894 864 872 866 869 870 871 875 877 880 886 893 900 904 909 915 919 923 926 928 930 931 930 928 926 924 922 919 916 913 910 906 902 897 892 887 882 877 872
880 884 905 895 883 861 858 875 875 872 860 863 870 878 885 895 905 907 907 912 917 921 924 927 929 930 930 929 927 925 922 919 916 913 910 906 902 898 893 888 883 878 872 867
885 882 879 895 885 874 863 869 871 869 864 867 870 880 888 898 892 894 910 915 920 923 925 927 928 928 928 927 925 922 919 916 913 911 907 904 900 895 889 885 879 874 867 860
886 887 886 887 876 861 864 869 872 871 870 872 874 881 888 890 892 902 912 916 920 922 925 926 926 927 926 924 922 919 916 913 911 908 904 900 896 891 885 879 874 868 861 854
873 881 888 886 888 876 866 872 871 873 877 876 877 883 890 898 904 910 913 917 921 922 923 924 924 923 922 921 919 916 912 909 907 903 899 895 891 887 880 874 869 862 856 848
866 861 864 867 861 870 872 873 878 879 878 881 884 889 895 900 906 911 914 919 922 922 922 922 922 920 919 917 916 913 909 907 904 901 895 890 886 881 876 870 863 857 851 846
865 869 866 869 870 870 876 879 881 881 882 887 892 895 899 903 909 912 914 919 921 922 922 921 919 917 915 914 912 909 906 904 900 895 891 886 881 877 872 866 860 854 849 844
858 865 862 869 874 876 879 880 885 888 891 894 898 901 903 908 911 914 917 921 922 921 920 918 917 914 912 909 907 904 902 899 896 892 888 882 878 873 868 862 856 850 846 843
859 857 858 851 857 864 875 885 888 891 895 899 902 907 909 913 916 918 920 922 921 919 918 916 913 911 908 905 903 900 897 895 892 888 883 878 875 870 863 856 849 843 839 835